Time,TemperatureF,DewpointF,PressureIn,WindDirection,WindDirectionDegrees,WindSpeedMPH,WindSpeedGustMPH,Humidity,HourlyPrecipIn,Conditions,Clouds,dailyrainin,SolarRadiationWatts/m^2,SoftwareType,DateUTC
2013-08-24 00:03:00,73.0,71.0,-100.00,SW,215,0.0,0.0,93,0.00,,,0.08,0.000000,,2013-08-24 05:03:00,
2013-08-24 00:43:00,73.0,71.0,-100.00,SW,234,0.0,0.0,93,0.00,,,0.08,0.000000,,2013-08-24 05:43:00,
2013-08-24 00:53:00,73.0,71.0,-100.00,SW,234,0.0,0.0,93,0.00,,,0.08,0.000000,,2013-08-24 05:53:00,
2013-08-24 01:02:00,73.0,71.0,-100.00,SW,234,0.0,0.0,93,0.00,,,0.08,0.000000,,2013-08-24 06:02:00,
2013-08-24 01:42:00,72.0,70.0,-100.00,SW,235,0.0,0.0,93,0.00,,,0.08,0.000000,,2013-08-24 06:42:00,
2013-08-24 01:52:00,72.0,70.0,-100.00,SW,235,0.0,0.0,93,0.00,,,0.08,0.000000,,2013-08-24 06:52:00,
2013-08-24 02:02:00,72.0,70.0,-100.00,SW,235,0.0,0.0,93,0.00,,,0.08,0.000000,,2013-08-24 07:02:00,
2013-08-24 02:43:00,71.0,69.0,-100.00,SW,222,0.0,0.0,93,0.00,,,0.08,0.000000,,2013-08-24 07:43:00,
2013-08-24 02:53:00,71.0,69.0,-100.00,SW,222,0.0,0.0,93,0.00,,,0.08,0.000000,,2013-08-24 07:53:00,
2013-08-24 03:02:00,71.0,69.0,-100.00,SW,222,0.0,0.0,93,0.00,,,0.08,0.000000,,2013-08-24 08:02:00,
2013-08-24 03:42:00,71.0,69.0,-100.00,ESE,115,0.0,0.0,93,0.00,,,0.08,0.000000,,2013-08-24 08:42:00,
2013-08-24 03:52:00,71.0,69.0,-100.00,ESE,115,0.0,0.0,93,0.00,,,0.08,0.000000,,2013-08-24 08:52:00,
2013-08-24 04:01:00,71.0,69.0,-100.00,ESE,115,0.0,0.0,93,0.00,,,0.08,0.000000,,2013-08-24 09:01:00,
2013-08-24 04:44:00,71.0,69.0,-100.00,ENE,71,0.0,0.0,93,0.00,,,0.08,0.000000,,2013-08-24 09:44:00,
2013-08-24 04:53:00,71.0,69.0,-100.00,ENE,71,0.0,0.0,93,0.00,,,0.08,0.000000,,2013-08-24 09:53:00,
2013-08-24 05:03:00,71.0,69.0,-100.00,ENE,71,0.0,0.0,93,0.00,,,0.08,0.000000,,2013-08-24 10:03:00,
2013-08-24 05:42:00,71.0,69.0,-100.00,ENE,62,1.0,3.0,94,0.00,,,0.08,0.000000,,2013-08-24 10:42:00,
2013-08-24 05:53:00,71.0,69.0,-100.00,ENE,62,1.0,3.0,94,0.00,,,0.08,0.000000,,2013-08-24 10:53:00,
2013-08-24 06:02:00,71.0,69.0,-100.00,ENE,62,1.0,3.0,94,0.00,,,0.08,0.000000,,2013-08-24 11:02:00,
2013-08-24 06:42:00,70.0,68.0,-100.00,ESE,123,0.0,3.0,94,0.00,,,0.08,0.000000,,2013-08-24 11:42:00,
2013-08-24 06:52:00,70.0,68.0,-100.00,ESE,123,0.0,3.0,94,0.00,,,0.08,0.000000,,2013-08-24 11:52:00,
2013-08-24 07:02:00,70.0,68.0,-100.00,ESE,123,0.0,3.0,94,0.00,,,0.08,0.000000,,2013-08-24 12:02:00,
2013-08-24 07:42:00,71.0,69.0,-100.00,NE,38,1.0,3.0,94,0.00,,,0.08,9.000000,,2013-08-24 12:42:00,
2013-08-24 07:52:00,71.0,69.0,-100.00,NE,38,1.0,3.0,94,0.00,,,0.08,9.000000,,2013-08-24 12:52:00,
2013-08-24 08:02:00,71.0,69.0,-100.00,NE,38,1.0,3.0,94,0.00,,,0.08,9.000000,,2013-08-24 13:02:00,
2013-08-24 08:42:00,73.0,71.0,-100.00,NE,46,1.0,5.0,93,0.00,,,0.08,96.000000,,2013-08-24 13:42:00,
2013-08-24 08:52:00,73.0,71.0,-100.00,NE,46,1.0,5.0,93,0.00,,,0.08,96.000000,,2013-08-24 13:52:00,
2013-08-24 09:02:00,73.0,71.0,-100.00,NE,46,1.0,5.0,93,0.00,,,0.08,96.000000,,2013-08-24 14:02:00,
2013-08-24 09:42:00,79.0,74.0,-100.00,East,88,3.0,6.0,85,0.00,,,0.08,252.000000,,2013-08-24 14:42:00,
2013-08-24 09:52:00,79.0,74.0,-100.00,East,88,3.0,6.0,85,0.00,,,0.08,252.000000,,2013-08-24 14:52:00,
2013-08-24 10:01:00,79.0,74.0,-100.00,East,88,3.0,6.0,85,0.00,,,0.08,252.000000,,2013-08-24 15:01:00,
2013-08-24 10:45:00,83.0,73.0,-100.00,East,89,5.0,9.0,73,0.00,,,0.08,412.000000,,2013-08-24 15:45:00,
2013-08-24 10:54:00,83.0,73.0,-100.00,East,89,5.0,9.0,73,0.00,,,0.08,412.000000,,2013-08-24 15:54:00,
2013-08-24 11:04:00,83.0,73.0,-100.00,East,89,5.0,9.0,73,0.00,,,0.08,412.000000,,2013-08-24 16:04:00,
2013-08-24 11:42:00,85.0,73.0,-100.00,ESE,107,4.0,11.0,68,0.00,,,0.08,511.000000,,2013-08-24 16:42:00,
2013-08-24 11:53:00,85.0,73.0,-100.00,ESE,107,4.0,11.0,68,0.00,,,0.08,511.000000,,2013-08-24 16:53:00,
2013-08-24 12:02:00,85.0,73.0,-100.00,ESE,107,4.0,11.0,68,0.00,,,0.08,511.000000,,2013-08-24 17:02:00,
2013-08-24 12:42:00,85.0,72.0,-100.00,East,90,5.0,11.0,65,0.00,,,0.08,543.000000,,2013-08-24 17:42:00,
2013-08-24 12:52:00,85.0,72.0,-100.00,East,90,5.0,11.0,65,0.00,,,0.08,543.000000,,2013-08-24 17:52:00,
2013-08-24 13:02:00,85.0,72.0,-100.00,East,90,5.0,11.0,65,0.00,,,0.08,543.000000,,2013-08-24 18:02:00,
2013-08-24 13:42:00,85.0,72.0,-100.00,ENE,76,4.0,9.0,65,0.00,,,0.08,402.000000,,2013-08-24 18:42:00,
2013-08-24 13:53:00,85.0,72.0,-100.00,ENE,76,4.0,9.0,65,0.00,,,0.08,402.000000,,2013-08-24 18:53:00,
2013-08-24 14:01:00,85.0,72.0,-100.00,ENE,76,4.0,9.0,65,0.00,,,0.08,402.000000,,2013-08-24 19:01:00,
2013-08-24 14:42:00,74.0,71.0,-100.00,ESE,116,3.0,11.0,91,0.73,,,0.81,105.000000,,2013-08-24 19:42:00,
2013-08-24 15:42:00,74.0,71.0,-100.00,East,86,0.0,9.0,91,0.33,,,1.14,77.000000,,2013-08-24 20:42:00,
2013-08-24 15:52:00,74.0,71.0,-100.00,East,86,0.0,9.0,91,0.33,,,1.14,77.000000,,2013-08-24 20:52:00,
2013-08-24 16:02:00,74.0,71.0,-100.00,East,86,0.0,9.0,91,0.33,,,1.14,77.000000,,2013-08-24 21:02:00,
2013-08-24 16:43:00,78.0,73.0,-100.00,East,97,3.0,6.0,86,0.00,,,1.14,260.000000,,2013-08-24 21:43:00,
2013-08-24 16:55:00,78.0,73.0,-100.00,East,97,3.0,6.0,86,0.00,,,1.14,260.000000,,2013-08-24 21:55:00,
2013-08-24 17:04:00,78.0,73.0,-100.00,East,97,3.0,6.0,86,0.00,,,1.14,260.000000,,2013-08-24 22:04:00,
2013-08-24 17:43:00,79.0,73.0,-100.00,SE,146,1.0,6.0,82,0.00,,,1.14,219.000000,,2013-08-24 22:43:00,
2013-08-24 17:53:00,79.0,73.0,-100.00,SE,146,1.0,6.0,82,0.00,,,1.14,219.000000,,2013-08-24 22:53:00,
2013-08-24 18:03:00,79.0,73.0,-100.00,SE,146,1.0,6.0,82,0.00,,,1.14,219.000000,,2013-08-24 23:03:00,
2013-08-24 18:43:00,78.0,73.0,-100.00,East,95,2.0,6.0,84,0.00,,,1.06,134.000000,,2013-08-24 23:43:00,
2013-08-24 18:53:00,78.0,73.0,-100.00,East,95,2.0,6.0,84,0.00,,,1.06,134.000000,,2013-08-24 23:53:00,
2013-08-24 19:02:00,78.0,73.0,-100.00,East,95,2.0,6.0,84,0.00,,,1.06,134.000000,,2013-08-25 00:02:00,
2013-08-24 19:42:00,77.0,73.0,-100.00,SE,126,0.0,4.0,88,0.00,,,1.06,51.000000,,2013-08-25 00:42:00,
2013-08-24 19:52:00,77.0,73.0,-100.00,SE,126,0.0,4.0,88,0.00,,,1.06,51.000000,,2013-08-25 00:52:00,
2013-08-24 20:01:00,77.0,73.0,-100.00,SE,126,0.0,4.0,88,0.00,,,1.06,51.000000,,2013-08-25 01:01:00,
2013-08-24 20:43:00,74.0,71.0,-100.00,ENE,76,1.0,3.0,91,0.00,,,1.06,3.000000,,2013-08-25 01:43:00,
2013-08-24 20:52:00,74.0,71.0,-100.00,ENE,76,1.0,3.0,91,0.00,,,1.06,3.000000,,2013-08-25 01:52:00,
2013-08-24 21:02:00,74.0,71.0,-100.00,ENE,76,1.0,3.0,91,0.00,,,1.06,3.000000,,2013-08-25 02:02:00,
2013-08-24 21:42:00,73.0,71.0,-100.00,South,177,0.0,3.0,92,0.00,,,1.06,0.000000,,2013-08-25 02:42:00,
2013-08-24 21:52:00,73.0,71.0,-100.00,South,177,0.0,3.0,92,0.00,,,1.06,0.000000,,2013-08-25 02:52:00,
2013-08-24 22:02:00,73.0,71.0,-100.00,South,177,0.0,3.0,92,0.00,,,1.06,0.000000,,2013-08-25 03:02:00,
2013-08-24 22:44:00,72.0,70.0,-100.00,SW,218,0.0,0.0,93,0.00,,,1.06,0.000000,,2013-08-25 03:44:00,
2013-08-24 22:54:00,72.0,70.0,-100.00,SW,218,0.0,0.0,93,0.00,,,1.06,0.000000,,2013-08-25 03:54:00,
2013-08-24 23:02:00,-999.0,-99.9,-100.00,SW,218,0.0,0.0,-999,-99.99,,,-99.99,0.000000,,2013-08-25 04:02:00,
2013-08-24 23:44:00,71.0,69.0,-100.00,SE,136,0.0,0.0,93,0.00,,,1.06,0.000000,,2013-08-25 04:44:00,
2013-08-24 23:54:00,71.0,69.0,-100.00,SE,136,0.0,0.0,93,0.00,,,1.06,0.000000,,2013-08-25 04:54:00,